����������;��������(kWh)
2015-08-10 00:00;68,5
2015-08-10 00:15;68,2
2015-08-10 00:30;67,45
2015-08-10 00:45;66,9
2015-08-10 01:00;67,2
2015-08-10 01:15;67,4
2015-08-10 01:30;66,65
2015-08-10 01:45;66,45
2015-08-10 02:00;65,4
2015-08-10 02:15;66,7
2015-08-10 02:30;66
2015-08-10 02:45;66,1
2015-08-10 03:00;66,15
2015-08-10 03:15;66,95
2015-08-10 03:30;68,1
2015-08-10 03:45;67
2015-08-10 04:00;67,05
2015-08-10 04:15;65,9
2015-08-10 04:30;67,7
2015-08-10 04:45;65,6
2015-08-10 05:00;65,95
2015-08-10 05:15;65,25
2015-08-10 05:30;66,75
2015-08-10 05:45;64,15
2015-08-10 06:00;65,5
2015-08-10 06:15;63,5
2015-08-10 06:30;63,45
2015-08-10 06:45;60,5
2015-08-10 07:00;57,7
2015-08-10 07:15;57,5
2015-08-10 07:30;58,5
2015-08-10 07:45;59,35
2015-08-10 08:00;57,05
2015-08-10 08:15;57,4
2015-08-10 08:30;60,4
2015-08-10 08:45;58,9
2015-08-10 09:00;61,55
2015-08-10 09:15;60,15
2015-08-10 09:30;67,7
2015-08-10 09:45;70,4
2015-08-10 10:00;69,25
2015-08-10 10:15;70,3
2015-08-10 10:30;70,85
2015-08-10 10:45;70,7
2015-08-10 11:00;71,9
2015-08-10 11:15;71
2015-08-10 11:30;73,65
2015-08-10 11:45;75,2
2015-08-10 12:00;74,05
2015-08-10 12:15;74,35
2015-08-10 12:30;75,25
2015-08-10 12:45;79,35
2015-08-10 13:00;77,45
2015-08-10 13:15;77,75
2015-08-10 13:30;75,75
2015-08-10 13:45;74,7
2015-08-10 14:00;75,65
2015-08-10 14:15;74,7
2015-08-10 14:30;71,05
2015-08-10 14:45;70,2
2015-08-10 15:00;69,7
2015-08-10 15:15;69,9
2015-08-10 15:30;70,95
2015-08-10 15:45;70,35
2015-08-10 16:00;64,45
2015-08-10 16:15;67,05
2015-08-10 16:30;67,35
2015-08-10 16:45;67,1
2015-08-10 17:00;66,55
2015-08-10 17:15;63,9
2015-08-10 17:30;64,6
2015-08-10 17:45;63,05
2015-08-10 18:00;65,35
2015-08-10 18:15;63,55
2015-08-10 18:30;65,05
2015-08-10 18:45;66,8
2015-08-10 19:00;64,3
2015-08-10 19:15;66,9
2015-08-10 19:30;64,15
2015-08-10 19:45;65,35
2015-08-10 20:00;65,65
2015-08-10 20:15;65,25
2015-08-10 20:30;66,6
2015-08-10 20:45;69,3
2015-08-10 21:00;69,7
2015-08-10 21:15;71,85
2015-08-10 21:30;75,15
2015-08-10 21:45;86,2
2015-08-10 22:00;87,1
2015-08-10 22:15;86,1
2015-08-10 22:30;82,5
2015-08-10 22:45;80,45
2015-08-10 23:00;80,35
2015-08-10 23:15;82,2
2015-08-10 23:30;80,3
2015-08-10 23:45;78,05
2015-08-11 00:00;81,8
2015-08-11 00:15;80,05
2015-08-11 00:30;78,55
2015-08-11 00:45;78,95
2015-08-11 01:00;77,65
2015-08-11 01:15;78,85
2015-08-11 01:30;80,2
2015-08-11 01:45;78,2
2015-08-11 02:00;79,15
2015-08-11 02:15;77,65
2015-08-11 02:30;79,4
2015-08-11 02:45;77,1
2015-08-11 03:00;78,8
2015-08-11 03:15;78,6
2015-08-11 03:30;78,25
2015-08-11 03:45;79,25
2015-08-11 04:00;77,55
2015-08-11 04:15;77,95
2015-08-11 04:30;78,6
2015-08-11 04:45;77,3
2015-08-11 05:00;77,1
2015-08-11 05:15;78,35
2015-08-11 05:30;77,15
2015-08-11 05:45;75,7
2015-08-11 06:00;77
2015-08-11 06:15;75,4
2015-08-11 06:30;74,95
2015-08-11 06:45;70,15
2015-08-11 07:00;68,65
2015-08-11 07:15;69,8
2015-08-11 07:30;68,35
2015-08-11 07:45;70,3
2015-08-11 08:00;68,9
2015-08-11 08:15;69,5
2015-08-11 08:30;71,95
2015-08-11 08:45;70,4
2015-08-11 09:00;73,45
2015-08-11 09:15;70,6
2015-08-11 09:30;73,5
2015-08-11 09:45;71,4
2015-08-11 10:00;77,7
2015-08-11 10:15;78,45
2015-08-11 10:30;79,95
2015-08-11 10:45;78,45
2015-08-11 11:00;75,95
2015-08-11 11:15;73,9
2015-08-11 11:30;75,4
2015-08-11 11:45;74,7
2015-08-11 12:00;73,9
2015-08-11 12:15;76,1
2015-08-11 12:30;76,4
2015-08-11 12:45;76,85
2015-08-11 13:00;79,65
2015-08-11 13:15;79
2015-08-11 13:30;78,65
2015-08-11 13:45;78,85
2015-08-11 14:00;78,75
2015-08-11 14:15;80,2
2015-08-11 14:30;78,35
2015-08-11 14:45;79,15
2015-08-11 15:00;80,65
2015-08-11 15:15;79,25
2015-08-11 15:30;78,9
2015-08-11 15:45;78,2
2015-08-11 16:00;77,5
2015-08-11 16:15;77,7
2015-08-11 16:30;79,15
2015-08-11 16:45;77,2
2015-08-11 17:00;77,15
2015-08-11 17:15;76,75
2015-08-11 17:30;76,35
2015-08-11 17:45;75,35
2015-08-11 18:00;73,95
2015-08-11 18:15;75,9
2015-08-11 18:30;74,4
2015-08-11 18:45;75,75
2015-08-11 19:00;75,1
2015-08-11 19:15;75,65
2015-08-11 19:30;77,3
2015-08-11 19:45;75,25
2015-08-11 20:00;75,4
2015-08-11 20:15;75,9
2015-08-11 20:30;76,05
2015-08-11 20:45;81,7
2015-08-11 21:00;79,85
2015-08-11 21:15;81,7
2015-08-11 21:30;86,2
2015-08-11 21:45;87,55
2015-08-11 22:00;75,35
2015-08-11 22:15;67,75
2015-08-11 22:30;68,35
2015-08-11 22:45;69,15
2015-08-11 23:00;69,1
2015-08-11 23:15;68,7
2015-08-11 23:30;69,35
2015-08-11 23:45;69,5
2015-08-12 00:00;70,15
2015-08-12 00:15;66,95
2015-08-12 00:30;69,3
2015-08-12 00:45;67,35
2015-08-12 01:00;68,3
2015-08-12 01:15;67,1
2015-08-12 01:30;67,35
2015-08-12 01:45;65,55
2015-08-12 02:00;68,4
2015-08-12 02:15;67,15
2015-08-12 02:30;67,25
2015-08-12 02:45;68,25
2015-08-12 03:00;67,05
2015-08-12 03:15;67,65
2015-08-12 03:30;66,25
2015-08-12 03:45;66,75
2015-08-12 04:00;66,4
2015-08-12 04:15;65,9
2015-08-12 04:30;65,05
2015-08-12 04:45;67,15
2015-08-12 05:00;66,4
2015-08-12 05:15;67
2015-08-12 05:30;66,85
2015-08-12 05:45;63,85
2015-08-12 06:00;64,9
2015-08-12 06:15;63,7
2015-08-12 06:30;63,4
2015-08-12 06:45;59,2
2015-08-12 07:00;57,45
2015-08-12 07:15;57,35
2015-08-12 07:30;57,35
2015-08-12 07:45;58,1
2015-08-12 08:00;58,45
2015-08-12 08:15;58,2
2015-08-12 08:30;60,4
2015-08-12 08:45;62,9
2015-08-12 09:00;63,2
2015-08-12 09:15;61,9
2015-08-12 09:30;63,4
2015-08-12 09:45;64,3
2015-08-12 10:00;63,35
2015-08-12 10:15;64,7
2015-08-12 10:30;64,35
2015-08-12 10:45;63,4
2015-08-12 11:00;64,4
2015-08-12 11:15;67,6
2015-08-12 11:30;66,95
2015-08-12 11:45;67,55
2015-08-12 12:00;67,85
2015-08-12 12:15;72,25
2015-08-12 12:30;71,25
2015-08-12 12:45;71
2015-08-12 13:00;71,8
2015-08-12 13:15;72,2
2015-08-12 13:30;72,3
2015-08-12 13:45;72,85
2015-08-12 14:00;70,15
2015-08-12 14:15;69,1
2015-08-12 14:30;68,55
2015-08-12 14:45;68,6
2015-08-12 15:00;67,55
2015-08-12 15:15;65,95
2015-08-12 15:30;67,15
2015-08-12 15:45;72,7
2015-08-12 16:00;74,4
2015-08-12 16:15;73,65
2015-08-12 16:30;72,5
2015-08-12 16:45;74,45
2015-08-12 17:00;72,35
2015-08-12 17:15;72,65
2015-08-12 17:30;74,1
2015-08-12 17:45;72,55
2015-08-12 18:00;74,1
2015-08-12 18:15;71,9
2015-08-12 18:30;72,1
2015-08-12 18:45;74,3
2015-08-12 19:00;73,1
2015-08-12 19:15;74
2015-08-12 19:30;73,7
2015-08-12 19:45;71,35
2015-08-12 20:00;72,55
2015-08-12 20:15;66
2015-08-12 20:30;67,7
2015-08-12 20:45;69,8
2015-08-12 21:00;68,6
2015-08-12 21:15;68,1
2015-08-12 21:30;69,55
2015-08-12 21:45;67,35
2015-08-12 22:00;67,25
2015-08-12 22:15;70,4
2015-08-12 22:30;74,4
2015-08-12 22:45;74,7
2015-08-12 23:00;70,25
2015-08-12 23:15;68,95
2015-08-12 23:30;69,7
2015-08-12 23:45;69,25
2015-08-13 00:00;71,95
2015-08-13 00:15;67,15
2015-08-13 00:30;67,5
2015-08-13 00:45;66,65
2015-08-13 01:00;68,45
2015-08-13 01:15;66,9
2015-08-13 01:30;66,75
2015-08-13 01:45;67,4
2015-08-13 02:00;66,6
2015-08-13 02:15;65,8
2015-08-13 02:30;65,35
2015-08-13 02:45;65,8
2015-08-13 03:00;64,8
2015-08-13 03:15;65,65
2015-08-13 03:30;65,15
2015-08-13 03:45;66,75
2015-08-13 04:00;65,85
2015-08-13 04:15;65,55
2015-08-13 04:30;65,45
2015-08-13 04:45;65,75
2015-08-13 05:00;66,15
2015-08-13 05:15;66,3
2015-08-13 05:30;65,1
2015-08-13 05:45;63,9
2015-08-13 06:00;63,95
2015-08-13 06:15;63,6
2015-08-13 06:30;62,7
2015-08-13 06:45;58,05
2015-08-13 07:00;57,4
2015-08-13 07:15;56,7
2015-08-13 07:30;58,65
2015-08-13 07:45;56,9
2015-08-13 08:00;56,75
2015-08-13 08:15;56,9
2015-08-13 08:30;58,4
2015-08-13 08:45;59,65
2015-08-13 09:00;61,5
2015-08-13 09:15;61,2
2015-08-13 09:30;62,25
2015-08-13 09:45;68,5
2015-08-13 10:00;70,5
2015-08-13 10:15;69,75
2015-08-13 10:30;69,5
2015-08-13 10:45;70,7
2015-08-13 11:00;70,35
2015-08-13 11:15;68,85
2015-08-13 11:30;72,1
2015-08-13 11:45;69,7
2015-08-13 12:00;74,25
2015-08-13 12:15;72,35
2015-08-13 12:30;75,6
2015-08-13 12:45;72,7
2015-08-13 13:00;71,75
2015-08-13 13:15;72,75
2015-08-13 13:30;70,85
2015-08-13 13:45;71,85
2015-08-13 14:00;71,35
2015-08-13 14:15;72,85
2015-08-13 14:30;71,25
2015-08-13 14:45;67,5
2015-08-13 15:00;66,4
2015-08-13 15:15;65,7
2015-08-13 15:30;65,85
2015-08-13 15:45;65,15
2015-08-13 16:00;65,6
2015-08-13 16:15;65
2015-08-13 16:30;65,4
2015-08-13 16:45;65,6
2015-08-13 17:00;64,5
2015-08-13 17:15;65,9
2015-08-13 17:30;63,95
2015-08-13 17:45;66,5
2015-08-13 18:00;64,4
2015-08-13 18:15;63,75
2015-08-13 18:30;64,9
2015-08-13 18:45;68,75
2015-08-13 19:00;65,6
2015-08-13 19:15;68,5
2015-08-13 19:30;63,85
2015-08-13 19:45;64,15
2015-08-13 20:00;61,55
2015-08-13 20:15;68,1
2015-08-13 20:30;71,75
2015-08-13 20:45;71,95
2015-08-13 21:00;67,95
2015-08-13 21:15;66,9
2015-08-13 21:30;68,2
2015-08-13 21:45;66,35
2015-08-13 22:00;68,2
2015-08-13 22:15;66,5
2015-08-13 22:30;67,55
2015-08-13 22:45;68,65
2015-08-13 23:00;70,2
2015-08-13 23:15;68,05
2015-08-13 23:30;68,25
2015-08-13 23:45;67,45
2015-08-14 00:00;69,55
2015-08-14 00:15;66,9
2015-08-14 00:30;66,85
2015-08-14 00:45;67,8
2015-08-14 01:00;67,3
2015-08-14 01:15;66,8
2015-08-14 01:30;66,65
2015-08-14 01:45;67,95
2015-08-14 02:00;66,05
2015-08-14 02:15;65,8
2015-08-14 02:30;66,3
2015-08-14 02:45;67
2015-08-14 03:00;66,45
2015-08-14 03:15;66,4
2015-08-14 03:30;67,2
2015-08-14 03:45;66,7
2015-08-14 04:00;66,3
2015-08-14 04:15;67,9
2015-08-14 04:30;66,05
2015-08-14 04:45;66,4
2015-08-14 05:00;66,7
2015-08-14 05:15;65,55
2015-08-14 05:30;65,35
2015-08-14 05:45;64,45
2015-08-14 06:00;65,85
2015-08-14 06:15;63,55
2015-08-14 06:30;63,2
2015-08-14 06:45;61,55
2015-08-14 07:00;58,9
2015-08-14 07:15;57,5
2015-08-14 07:30;56,7
2015-08-14 07:45;57,65
2015-08-14 08:00;56,1
2015-08-14 08:15;57
2015-08-14 08:30;60
2015-08-14 08:45;60,6
2015-08-14 09:00;60,1
2015-08-14 09:15;61,75
2015-08-14 09:30;60,3
2015-08-14 09:45;62,45
2015-08-14 10:00;60,05
2015-08-14 10:15;62,7
2015-08-14 10:30;64
2015-08-14 10:45;62
2015-08-14 11:00;63,4
2015-08-14 11:15;64,2
2015-08-14 11:30;62,7
2015-08-14 11:45;64,9
2015-08-14 12:00;63,9
2015-08-14 12:15;63,15
2015-08-14 12:30;65,15
2015-08-14 12:45;64,6
2015-08-14 13:00;66,1
2015-08-14 13:15;64,05
2015-08-14 13:30;59,85
2015-08-14 13:45;66,1
2015-08-14 14:00;69,5
2015-08-14 14:15;69,4
2015-08-14 14:30;61
2015-08-14 14:45;60,8
2015-08-14 15:00;60,35
2015-08-14 15:15;60,2
2015-08-14 15:30;59,85
2015-08-14 15:45;59,1
2015-08-14 16:00;58,35
2015-08-14 16:15;58,25
2015-08-14 16:30;58,75
2015-08-14 16:45;58,65
2015-08-14 17:00;58,75
2015-08-14 17:15;59,5
2015-08-14 17:30;55,55
2015-08-14 17:45;56,65
2015-08-14 18:00;54,25
2015-08-14 18:15;54,5
2015-08-14 18:30;55,1
2015-08-14 18:45;54,6
2015-08-14 19:00;54,35
2015-08-14 19:15;57,55
2015-08-14 19:30;55,8
2015-08-14 19:45;58,85
2015-08-14 20:00;63,4
2015-08-14 20:15;64,95
2015-08-14 20:30;62,2
2015-08-14 20:45;63,1
2015-08-14 21:00;62,4
2015-08-14 21:15;61,6
2015-08-14 21:30;62,4
2015-08-14 21:45;61,85
2015-08-14 22:00;61,85
2015-08-14 22:15;61,85
2015-08-14 22:30;59,95
2015-08-14 22:45;60,95
2015-08-14 23:00;60,75
2015-08-14 23:15;62,45
2015-08-14 23:30;61
2015-08-14 23:45;61,3
2015-08-15 00:00;60,3
2015-08-15 00:15;60,75
2015-08-15 00:30;60,25
2015-08-15 00:45;60,85
2015-08-15 01:00;61,25
2015-08-15 01:15;59,15
2015-08-15 01:30;60,75
2015-08-15 01:45;59,15
2015-08-15 02:00;59,6
2015-08-15 02:15;59,1
2015-08-15 02:30;60,3
2015-08-15 02:45;61,1
2015-08-15 03:00;60,5
2015-08-15 03:15;61
2015-08-15 03:30;61,05
2015-08-15 03:45;59,5
2015-08-15 04:00;59,1
2015-08-15 04:15;61,25
2015-08-15 04:30;59,9
2015-08-15 04:45;60,2
2015-08-15 05:00;60,85
2015-08-15 05:15;60,1
2015-08-15 05:30;60,95
2015-08-15 05:45;58,3
2015-08-15 06:00;58,35
2015-08-15 06:15;58,45
2015-08-15 06:30;57,8
2015-08-15 06:45;54,6
2015-08-15 07:00;59,1
2015-08-15 07:15;59,3
2015-08-15 07:30;60,35
2015-08-15 07:45;56,05
2015-08-15 08:00;53,3
2015-08-15 08:15;53,6
2015-08-15 08:30;54,65
2015-08-15 08:45;56,05
2015-08-15 09:00;55,05
2015-08-15 09:15;56,1
2015-08-15 09:30;55,45
2015-08-15 09:45;55,6
2015-08-15 10:00;54,6
2015-08-15 10:15;55,95
2015-08-15 10:30;54,1
2015-08-15 10:45;54,15
2015-08-15 11:00;53,55
2015-08-15 11:15;55,1
2015-08-15 11:30;53,95
2015-08-15 11:45;55,85
2015-08-15 12:00;56,8
2015-08-15 12:15;56,3
2015-08-15 12:30;58,5
2015-08-15 12:45;56,55
2015-08-15 13:00;58,05
2015-08-15 13:15;56,55
2015-08-15 13:30;57,3
2015-08-15 13:45;56,8
2015-08-15 14:00;56,95
2015-08-15 14:15;56,25
2015-08-15 14:30;58,2
2015-08-15 14:45;56,2
2015-08-15 15:00;57,65
2015-08-15 15:15;56,25
2015-08-15 15:30;57
2015-08-15 15:45;56,45
2015-08-15 16:00;58,8
2015-08-15 16:15;57,35
2015-08-15 16:30;58,55
2015-08-15 16:45;57,45
2015-08-15 17:00;58,95
2015-08-15 17:15;57,1
2015-08-15 17:30;57,7
2015-08-15 17:45;57,8
2015-08-15 18:00;56,75
2015-08-15 18:15;57,9
2015-08-15 18:30;56,9
2015-08-15 18:45;57,3
2015-08-15 19:00;56,8
2015-08-15 19:15;57,6
2015-08-15 19:30;58,8
2015-08-15 19:45;56,8
2015-08-15 20:00;58,2
2015-08-15 20:15;58,4
2015-08-15 20:30;59,8
2015-08-15 20:45;62,8
2015-08-15 21:00;64,1
2015-08-15 21:15;62,2
2015-08-15 21:30;61,6
2015-08-15 21:45;62,3
2015-08-15 22:00;61,3
2015-08-15 22:15;63,2
2015-08-15 22:30;69,55
2015-08-15 22:45;69,55
2015-08-15 23:00;66
2015-08-15 23:15;63,9
2015-08-15 23:30;62,9
2015-08-15 23:45;62,25
2015-08-16 00:00;63,95
2015-08-16 00:15;62,55
2015-08-16 00:30;62,35
2015-08-16 00:45;62,6
2015-08-16 01:00;62,3
2015-08-16 01:15;62,6
2015-08-16 01:30;61,4
2015-08-16 01:45;60,25
2015-08-16 02:00;60,95
2015-08-16 02:15;61,7
2015-08-16 02:30;61,2
2015-08-16 02:45;60
2015-08-16 03:00;61,2
2015-08-16 03:15;61,6
2015-08-16 03:30;61,05
2015-08-16 03:45;60,5
2015-08-16 04:00;60,6
2015-08-16 04:15;60,15
2015-08-16 04:30;61,9
2015-08-16 04:45;60,45
2015-08-16 05:00;61
2015-08-16 05:15;62,15
2015-08-16 05:30;60,7
2015-08-16 05:45;59,55
2015-08-16 06:00;60,15
2015-08-16 06:15;59,2
2015-08-16 06:30;64,7
2015-08-16 06:45;61,9
2015-08-16 07:00;60,15
2015-08-16 07:15;54,85
2015-08-16 07:30;54,25
2015-08-16 07:45;53,1
2015-08-16 08:00;55,05
2015-08-16 08:15;54,25
2015-08-16 08:30;56,35
2015-08-16 08:45;56,25
2015-08-16 09:00;55,95
2015-08-16 09:15;57,35
2015-08-16 09:30;57
2015-08-16 09:45;58,65
2015-08-16 10:00;57,2
2015-08-16 10:15;59
2015-08-16 10:30;57,65
2015-08-16 10:45;59,15
2015-08-16 11:00;58,4
2015-08-16 11:15;59,4
2015-08-16 11:30;60
2015-08-16 11:45;59,2
2015-08-16 12:00;61,5
2015-08-16 12:15;60,6
2015-08-16 12:30;58,9
2015-08-16 12:45;59,95
2015-08-16 13:00;60,1
2015-08-16 13:15;59
2015-08-16 13:30;58,3
2015-08-16 13:45;58
2015-08-16 14:00;56,65
2015-08-16 14:15;57,35
2015-08-16 14:30;57,15
2015-08-16 14:45;58,2
2015-08-16 15:00;56,95
2015-08-16 15:15;57,5
2015-08-16 15:30;57,8
2015-08-16 15:45;58,75
2015-08-16 16:00;57,8
2015-08-16 16:15;58,95
2015-08-16 16:30;58,35
2015-08-16 16:45;58,2
2015-08-16 17:00;58,15
2015-08-16 17:15;57,25
2015-08-16 17:30;59,05
2015-08-16 17:45;59,15
2015-08-16 18:00;57,5
2015-08-16 18:15;59,2
2015-08-16 18:30;57,8
2015-08-16 18:45;59,3
2015-08-16 19:00;57,75
2015-08-16 19:15;60,45
2015-08-16 19:30;59,6
2015-08-16 19:45;59,95
2015-08-16 20:00;60,2
2015-08-16 20:15;61,15
2015-08-16 20:30;62,9
2015-08-16 20:45;65,8
2015-08-16 21:00;65,1
2015-08-16 21:15;65,8
2015-08-16 21:30;63,9
2015-08-16 21:45;64,8
2015-08-16 22:00;64,6
2015-08-16 22:15;65,3
2015-08-16 22:30;66,1
2015-08-16 22:45;65,65
2015-08-16 23:00;64,45
2015-08-16 23:15;62,6
2015-08-16 23:30;64,85
2015-08-16 23:45;66,3

